Temp
70 70 70 70 70 71 71 70 71 70 70 71 70 71 70 71 71 70 69 69 69 69 69 68 68 67 67 67 66 66 66 66 66 66 65 65 65 64 64 64 65 66
70 70 70 70 70 70 71 72 71 71 70 71 71 71 71 70 69 69 68 68 68 68 69 68 68 67 66 66 65 64 64 64 64 64 64 63 63 63 63 64 64 64
70 69 69 69 69 70 70 71 71 71 71 71 71 71 70 70 69 69 68 68 68 68 67 68 68 67 66 66 65 64 63 62 62 63 62 62 63 62 62 62 62 62
69 70 69 69 70 70 71 70 70 71 71 70 70 70 70 68 69 68 67 65 67 67 67 67 67 67 66 66 65 64 63 62 62 62 61 61 61 61 61 61 61 62
69 69 70 70 70 70 70 69 69 70 70 70 70 70 69 69 68 68 67 67 67 67 67 67 67 67 66 65 64 63 62 61 61 61 60 59 59 59 60 60 59 58
69 70 70 69 69 69 69 69 69 69 69 69 69 70 70 69 68 67 66 66 66 66 66 66 66 66 66 65 63 62 62 61 61 60 58 58 58 59 59 59 58 57
68 69 68 69 69 69 69 69 69 69 69 69 70 69 69 68 67 67 66 65 65 65 66 65 65 64 63 62 61 61 60 60 59 59 58 57 57 57 58 58 58 57
68 69 69 69 68 68 68 68 68 69 69 69 68 69 69 68 67 66 65 65 65 65 65 65 64 63 62 61 60 59 59 59 59 58 57 58 57 56 58 58 57 56
68 68 68 68 67 67 67 67 67 68 69 67 67 68 68 67 66 66 65 65 64 64 65 64 62 62 61 60 59 58 58 58 58 58 57 57 57 57 58 58 56 56
66 66 66 66 66 66 66 66 66 66 67 66 66 66 65 65 66 66 64 63 62 62 62 62 61 60 60 59 60 59 58 58 57 58 58 58 57 58 57 56 56 55
64 65 65 65 65 66 66 66 65 65 65 64 64 64 63 63 63 64 63 62 61 61 61 60 60 61 60 59 59 59 59 58 58 58 58 58 58 58 53 58 57 56
62 63 63 64 65 66 66 66 66 65 64 62 63 63 62 61 61 61 61 61 60 61 61 61 61 59 59 59 59 58 58 58 58 58 58 58 58 58 58 57 57 56
61 62 62 63 63 64 65 65 65 64 63 62 61 61 61 60 60 60 59 60 60 60 61 61 60 59 58 59 59 59 58 57 57 57 58 57 57 57 57 57 56 56
60 61 61 61 62 63 63 63 63 63 63 63 60 59 59 60 60 59 59 58 59 59 60 60 59 58 58 58 58 58 58 57 57 57 56 56 55 56 56 56 55 55
56 57 58 57 57 57 57 58 58 59 59 59 58 57 58 59 59 58 58 57 57 58 58 58 58 58 58 58 58 58 58 57 57 56 55 54 54 53 52 53 52 52
54 53 52 51 51 52 53 53 53 52 53 53 54 55 55 55 56 56 56 56 56 56 56 57 57 58 52 49 50 57 57 56 56 55 54 54 53 50 48 47 47 48
51 50 50 49 50 50 50 49 50 48 48 48 49 49 50 50 51 53 53 55 55 55 55 55 56 55 48 48 48 49 54 56 54 54 53 52 50 49 47 44 43 44
49 49 47 46 47 48 48 46 46 45 46 46 46 46 46 45 47 49 51 51 52 52 53 54 54 47 47 47 47 47 47 53 54 53 51 51 48 48 47 45 43 41
48 47 45 44 44 45 45 45 45 44 44 44 45 45 44 45 46 46 46 46 48 49 49 49 49 46 46 46 46 46 46 48 53 52 50 48 47 46 45 44 42 41
47 45 44 44 43 43 43 43 43 44 44 44 43 43 43 43 44 44 44 44 45 46 46 46 47 44 44 45 45 45 45 46 52 50 48 46 45 45 44 43 42 42
46 44 43 43 42 41 41 42 42 42 43 43 43 43 43 43 44 43 43 43 43 44 45 45 46 43 43 44 44 44 44 45 49 47 45 44 43 43 43 42 42 43
46 45 43 42 41 41 41 41 41 41 42 42 41 42 42 43 42 43 43 43 43 43 44 45 45 42 42 42 43 44 44 45 45 43 42 41 41 41 42 41 40 40
46 44 42 41 40 40 40 40 41 40 41 42 41 42 42 42 42 42 42 43 42 42 43 44 44 41 40 41 42 43 43 43 41 41 41 41 40 40 40 40 40 41
47 45 43 41 41 40 40 41 42 43 42 40 42 41 41 42 42 41 40 40 41 41 42 43 43 39 39 40 42 42 42 42 41 40 39 40 39 39 40 40 41 36
48 45 42 41 40 40 41 40 40 40 41 39 41 43 42 42 39 41 39 39 39 40 37 41 42 39 38 40 41 41 41 41 41 40 39 38 38 37 38 39 39 36
47 44 42 41 39 40 41 41 40 40 40 40 39 41 40 41 41 40 39 39 37 38 37 39 41 39 39 39 40 41 41 41 41 42 40 38 38 38 37 36 37 39
MSLP
1010.58 1010.66 1010.78 1010.94 1010.98 1010.90 1010.94 1011.02 1011.02 1011.26 1011.46 1011.66 1011.82 1011.82 1012.02 1012.10 1012.46 1012.82 1013.14 1013.42 1013.54 1013.70 1013.86 1014.14 1014.30 1014.54 1014.70 1014.86 1015.06 1015.22 1015.26 1015.26 1015.46 1015.54 1015.78 1015.94 1015.98 1016.14 1016.26 1016.30 1016.42 1016.38
1009.98 1010.18 1010.34 1010.50 1010.54 1010.54 1010.50 1010.58 1010.74 1010.90 1011.02 1011.14 1011.18 1011.34 1011.54 1011.82 1012.10 1012.38 1012.66 1012.86 1013.14 1013.34 1013.42 1013.62 1013.78 1014.02 1014.26 1014.46 1014.62 1014.82 1014.90 1014.98 1015.06 1015.18 1015.38 1015.50 1015.58 1015.74 1015.78 1015.86 1015.98 1016.02
1009.70 1009.90 1010.06 1010.18 1010.10 1010.10 1010.22 1010.34 1010.50 1010.66 1010.74 1010.74 1010.90 1011.02 1011.14 1011.34 1011.66 1011.94 1012.18 1012.38 1012.66 1012.86 1013.02 1013.18 1013.34 1013.50 1013.70 1013.90 1014.06 1014.30 1014.42 1014.54 1014.74 1014.82 1015.10 1015.06 1015.14 1015.30 1015.30 1015.46 1015.54 1015.58
1009.34 1009.42 1009.54 1009.62 1009.70 1009.82 1009.94 1010.14 1010.18 1010.26 1010.34 1010.50 1010.54 1010.58 1010.78 1010.98 1011.22 1011.58 1011.82 1012.14 1012.26 1012.42 1012.58 1012.70 1012.82 1012.98 1013.18 1013.34 1013.62 1013.78 1013.90 1014.10 1014.18 1014.46 1014.66 1014.74 1014.70 1014.78 1014.90 1015.02 1015.10 1015.18
1008.74 1008.90 1008.98 1009.06 1009.18 1009.38 1009.58 1009.70 1009.70 1009.74 1009.86 1009.90 1010.06 1010.22 1010.46 1010.66 1010.94 1011.18 1011.46 1011.66 1011.86 1011.98 1012.10 1012.22 1012.34 1012.50 1012.66 1012.86 1013.10 1013.34 1013.46 1013.58 1013.74 1013.94 1014.14 1014.26 1014.26 1014.46 1014.54 1014.70 1014.78 1014.90
1008.22 1008.26 1008.38 1008.58 1008.74 1008.94 1009.10 1009.10 1009.14 1009.26 1009.38 1009.54 1009.58 1009.74 1010.02 1010.22 1010.42 1010.78 1011.02 1011.26 1011.38 1011.46 1011.62 1011.74 1011.86 1011.94 1012.10 1012.30 1012.62 1012.82 1012.90 1013.14 1013.26 1013.50 1013.70 1013.74 1013.86 1014.02 1014.18 1014.26 1014.38 1014.46
1007.70 1007.82 1007.98 1008.14 1008.42 1008.54 1008.70 1008.70 1008.78 1008.82 1008.94 1009.02 1009.30 1009.38 1009.62 1009.78 1009.98 1010.26 1010.54 1010.74 1010.90 1010.98 1011.06 1011.26 1011.42 1011.54 1011.74 1011.94 1012.14 1012.30 1012.46 1012.66 1012.90 1013.06 1013.18 1013.30 1013.46 1013.54 1013.66 1013.78 1013.86 1013.98
1007.22 1007.30 1007.46 1007.62 1007.90 1008.10 1008.26 1008.26 1008.26 1008.34 1008.42 1008.78 1008.86 1008.82 1009.14 1009.26 1009.54 1009.82 1010.02 1010.26 1010.42 1010.46 1010.58 1010.66 1010.86 1010.98 1011.14 1011.42 1011.66 1011.78 1011.94 1012.18 1012.42 1012.62 1012.74 1012.86 1012.98 1013.06 1013.14 1013.26 1013.42 1013.54
1006.98 1007.06 1007.10 1007.34 1007.58 1007.70 1007.78 1007.82 1007.86 1007.94 1008.10 1008.38 1008.50 1008.46 1008.70 1008.86 1009.22 1009.34 1009.54 1009.78 1009.90 1009.94 1010.06 1010.18 1010.30 1010.46 1010.58 1010.90 1011.14 1011.30 1011.50 1011.70 1011.82 1012.02 1012.14 1012.26 1012.34 1012.38 1012.54 1012.70 1012.90 1012.94
1006.78 1006.74 1006.90 1006.98 1007.14 1007.18 1007.26 1007.38 1007.54 1007.70 1007.82 1008.02 1008.18 1008.34 1008.50 1008.62 1008.82 1008.90 1009.14 1009.30 1009.46 1009.58 1009.62 1009.66 1009.78 1009.98 1010.18 1010.34 1010.54 1010.74 1010.94 1011.14 1011.34 1011.46 1011.54 1011.66 1011.78 1011.86 1012.06 1012.26 1012.34 1012.54
1006.42 1006.46 1006.54 1006.58 1006.62 1006.70 1006.82 1006.98 1007.14 1007.34 1007.50 1007.66 1007.86 1008.02 1008.10 1008.30 1008.54 1008.58 1008.74 1008.86 1008.94 1008.98 1009.10 1009.26 1009.34 1009.50 1009.74 1009.90 1010.06 1010.18 1010.38 1010.58 1010.78 1010.94 1011.06 1011.14 1011.22 1011.38 1011.54 1011.66 1011.82 1011.98
1006.18 1006.18 1006.18 1006.10 1006.18 1006.30 1006.34 1006.54 1006.70 1006.82 1006.98 1007.14 1007.34 1007.46 1007.62 1007.82 1008.06 1008.18 1008.18 1008.30 1008.42 1008.50 1008.58 1008.74 1008.90 1009.06 1009.26 1009.42 1009.62 1009.78 1009.94 1010.10 1010.26 1010.42 1010.50 1010.66 1010.78 1010.86 1010.98 1011.10 1011.26 1011.46
1005.90 1005.86 1005.86 1005.94 1006.02 1006.06 1006.10 1006.22 1006.26 1006.30 1006.50 1006.62 1006.74 1006.98 1007.18 1007.38 1007.50 1007.62 1007.70 1007.78 1007.86 1008.06 1008.14 1008.22 1008.38 1008.62 1008.82 1008.98 1009.10 1009.30 1009.50 1009.70 1009.86 1009.90 1010.02 1010.18 1010.30 1010.46 1010.58 1010.70 1010.86 1011.02
1005.70 1005.78 1005.86 1005.90 1005.98 1005.98 1006.06 1006.10 1006.14 1006.14 1006.14 1006.26 1006.58 1006.78 1006.78 1006.78 1006.94 1007.06 1007.18 1007.46 1007.50 1007.62 1007.66 1007.82 1008.02 1008.18 1008.38 1008.50 1008.62 1008.82 1009.06 1009.22 1009.38 1009.54 1009.66 1009.82 1009.94 1010.10 1010.18 1010.30 1010.42 1010.58
1005.90 1005.82 1005.90 1006.02 1006.18 1006.26 1006.26 1006.22 1006.22 1006.26 1006.38 1006.42 1006.50 1006.54 1006.58 1006.54 1006.66 1006.82 1007.02 1007.14 1007.26 1007.30 1007.38 1007.50 1007.62 1007.70 1007.82 1008.02 1008.26 1008.42 1008.62 1008.78 1008.94 1009.14 1009.34 1009.54 1009.70 1009.82 1009.94 1010.02 1010.18 1010.30
1006.02 1006.06 1006.10 1006.14 1006.18 1006.10 1006.14 1006.30 1006.42 1006.50 1006.58 1006.58 1006.50 1006.46 1006.50 1006.58 1006.66 1006.70 1006.82 1006.90 1006.98 1007.06 1007.14 1007.18 1007.26 1007.26 1007.38 1007.66 1007.86 1008.10 1008.34 1008.50 1008.70 1008.82 1008.98 1009.14 1009.34 1009.54 1009.74 1009.90 1010.02 1010.18
1006.06 1006.10 1006.14 1006.06 1005.86 1005.98 1006.02 1006.10 1006.18 1006.38 1006.46 1006.46 1006.46 1006.50 1006.54 1006.58 1006.70 1006.70 1006.66 1006.62 1006.66 1006.78 1006.90 1006.94 1006.94 1006.98 1007.18 1007.42 1007.66 1007.82 1007.98 1008.18 1008.38 1008.50 1008.70 1008.86 1009.02 1009.26 1009.42 1009.70 1009.98 1010.18
1005.98 1006.10 1006.14 1005.94 1005.90 1005.70 1005.78 1006.02 1006.22 1006.26 1006.18 1006.18 1006.26 1006.34 1006.46 1006.70 1006.78 1006.58 1006.54 1006.66 1006.70 1006.66 1006.66 1006.62 1006.70 1006.82 1007.06 1007.22 1007.42 1007.58 1007.78 1007.90 1008.06 1008.22 1008.42 1008.54 1008.74 1008.94 1009.14 1009.46 1009.74 1010.10
1005.90 1006.10 1005.98 1005.86 1005.78 1005.74 1005.78 1005.94 1006.06 1006.14 1005.98 1005.94 1005.94 1006.10 1006.50 1006.54 1006.46 1006.62 1006.62 1006.66 1006.70 1006.62 1006.58 1006.62 1006.66 1006.74 1006.90 1007.02 1007.18 1007.38 1007.58 1007.74 1007.78 1007.94 1008.14 1008.34 1008.58 1008.78 1008.98 1009.30 1009.66 1009.98
1005.50 1005.78 1005.86 1005.74 1005.82 1005.82 1005.82 1005.82 1005.86 1005.70 1005.70 1005.78 1005.86 1006.06 1006.14 1006.22 1006.34 1006.38 1006.46 1006.50 1006.50 1006.50 1006.50 1006.58 1006.58 1006.58 1006.74 1006.82 1006.90 1007.06 1007.26 1007.50 1007.50 1007.66 1007.90 1008.18 1008.42 1008.66 1008.86 1009.14 1009.42 1009.58
1005.14 1005.30 1005.38 1005.50 1005.74 1005.78 1005.70 1005.62 1005.54 1005.54 1005.62 1005.54 1005.58 1005.58 1005.66 1005.70 1005.82 1006.02 1006.06 1006.14 1006.22 1006.26 1006.26 1006.18 1006.14 1006.26 1006.38 1006.42 1006.54 1006.70 1006.86 1007.10 1007.18 1007.42 1007.70 1007.98 1008.26 1008.54 1008.70 1008.90 1009.14 1009.26
1005.14 1005.02 1004.90 1005.14 1005.38 1005.50 1005.54 1005.22 1005.14 1005.14 1005.14 1005.22 1005.30 1005.26 1005.26 1005.34 1005.46 1005.50 1005.50 1005.62 1005.74 1005.86 1005.86 1005.74 1005.74 1005.90 1005.98 1006.06 1006.18 1006.30 1006.54 1006.86 1006.98 1007.26 1007.58 1007.82 1008.10 1008.38 1008.66 1008.82 1009.02 1009.22
1004.70 1004.82 1004.86 1004.98 1005.14 1005.18 1005.10 1004.82 1004.62 1004.62 1004.74 1004.86 1004.86 1004.74 1004.74 1004.74 1004.62 1004.82 1004.98 1005.18 1005.34 1005.50 1005.50 1005.42 1005.46 1005.62 1005.78 1005.86 1005.90 1006.06 1006.38 1006.62 1006.90 1007.18 1007.42 1007.58 1007.78 1008.18 1008.46 1008.66 1008.74 1008.94
1004.18 1004.50 1004.74 1004.90 1005.02 1004.78 1004.38 1004.26 1004.30 1004.46 1004.46 1004.50 1004.30 1004.22 1004.18 1004.02 1004.26 1004.58 1004.82 1004.90 1004.98 1005.06 1005.14 1005.10 1005.14 1005.38 1005.58 1005.66 1005.74 1005.86 1006.06 1006.42 1006.78 1006.98 1007.30 1007.46 1007.82 1008.18 1008.34 1008.42 1008.46 1008.66
1003.66 1004.02 1004.18 1004.34 1004.54 1004.26 1004.02 1003.98 1003.86 1003.74 1003.98 1004.42 1004.22 1004.10 1004.02 1004.18 1004.30 1004.30 1004.50 1004.78 1004.86 1004.86 1005.02 1004.94 1004.82 1005.14 1005.42 1005.58 1005.66 1005.74 1006.02 1006.30 1006.58 1006.82 1007.10 1007.46 1007.70 1007.98 1008.26 1008.30 1008.50 1008.78
1003.34 1003.58 1003.74 1003.86 1003.78 1003.78 1004.02 1003.94 1003.90 1004.02 1004.02 1004.14 1004.22 1004.26 1004.30 1004.46 1004.54 1004.50 1004.50 1004.62 1004.98 1005.10 1005.10 1005.06 1004.94 1005.10 1005.42 1005.46 1005.58 1005.70 1005.82 1006.10 1006.42 1006.54 1006.66 1007.02 1007.38 1007.50 1008.02 1008.42 1008.50 1008.62
Wind_Speed
16 14 14 13 14 13 13 14 13 13 13 12 12 12 11 11 11 13 15 14 16 16 16 16 15 15 14 15 14 14 14 15 14 14 15 15 16 17 16 17 17 15
17 16 13 12 12 12 13 12 12 12 12 12 12 10 10 10 11 12 13 14 14 16 16 15 15 16 15 14 15 15 14 14 15 11 14 16 16 16 17 18 17 16
15 15 15 16 14 15 14 12 11 11 11 12 11 11 10 10 11 12 12 13 14 16 15 16 16 16 16 15 15 14 14 14 14 14 12 16 15 15 15 14 15 16
16 16 15 16 16 15 13 12 12 12 12 11 12 11 10 8 10 11 11 12 13 16 15 16 16 16 16 16 15 13 14 14 13 12 13 13 13 13 14 13 13 12
15 15 15 15 14 14 13 13 14 14 13 13 12 11 11 10 10 11 12 14 16 16 15 16 16 16 15 14 15 13 13 12 12 13 12 11 12 11 12 10 12 12
13 14 14 14 14 14 14 15 15 14 14 14 14 11 11 13 11 14 16 16 15 16 15 15 16 16 16 15 14 13 12 11 11 12 11 12 11 10 9 10 12 12
15 14 15 13 14 16 18 16 14 13 14 13 12 13 15 14 14 16 16 16 16 16 16 15 16 15 15 13 12 11 10 10 10 11 12 11 10 11 11 12 12 12
15 13 13 14 16 17 18 18 17 18 14 15 18 15 17 16 16 15 14 16 16 16 16 16 16 16 12 10 12 12 12 11 11 12 12 12 10 12 12 11 11 11
12 12 12 14 15 15 18 18 17 17 16 16 17 15 15 14 13 16 15 15 16 16 16 16 15 13 11 13 12 12 12 11 12 12 12 12 12 13 13 12 12 13
12 12 13 14 15 17 18 18 16 16 15 14 16 13 12 8 15 16 14 13 15 14 14 13 13 12 12 12 13 13 12 13 12 12 12 13 13 12 11 11 11 11
13 12 13 14 17 16 18 17 17 15 13 11 12 11 10 11 11 12 12 13 13 14 14 13 13 13 12 12 12 12 12 12 12 12 12 12 13 12 12 12 12 12
12 12 13 15 16 18 18 17 15 15 12 11 12 18 13 11 12 12 13 13 14 14 14 13 12 12 12 12 11 11 11 11 11 11 11 12 12 12 12 11 11 11
12 12 11 12 12 13 14 15 15 16 14 15 12 14 12 12 13 14 12 13 13 13 13 13 13 11 11 12 12 11 11 11 11 12 11 11 11 11 11 10 10 10
10 9 9 10 11 11 11 14 14 13 15 14 12 12 13 14 13 13 12 11 12 12 13 12 11 11 11 12 11 11 11 11 11 11 10 10 10 10 11 11 10 10
7 9 10 10 10 9 11 11 11 11 11 10 9 10 10 12 11 11 10 11 11 11 11 11 11 12 11 11 11 12 11 11 11 11 10 10 9 9 9 9 8 8
8 10 8 7 8 10 10 8 8 8 8 8 10 10 10 9 9 9 9 10 11 11 11 11 11 10 12 16 13 10 10 9 9 10 10 10 10 9 8 7 7 6
6 9 9 10 12 9 9 9 9 7 7 8 8 8 9 8 8 9 10 10 10 10 11 10 10 9 14 14 16 17 13 10 10 9 9 9 9 8 9 7 6 6
7 7 10 12 10 11 9 7 6 7 9 9 8 9 8 5 7 10 9 8 8 9 10 10 10 11 13 13 15 16 15 10 8 8 8 8 8 8 7 7 7 6
6 7 8 10 10 8 7 7 8 8 10 9 10 7 4 8 9 7 8 7 8 9 9 8 7 9 13 14 15 15 16 13 8 8 8 7 7 8 8 7 7 7
8 8 9 9 8 8 7 8 9 11 10 8 6 6 8 8 7 9 7 8 8 8 8 7 8 9 13 14 15 15 15 13 8 8 8 8 8 8 8 8 9 9
8 8 10 10 8 8 8 9 10 9 9 9 8 9 9 10 9 9 9 9 9 8 8 9 9 12 14 15 15 16 15 13 7 7 7 7 6 6 8 8 8 9
8 8 8 9 9 8 9 11 11 11 11 9 8 8 8 7 8 8 10 10 9 9 9 10 9 13 14 16 16 16 16 10 7 7 7 7 7 7 7 7 7 8
9 8 9 10 9 10 11 12 12 12 10 8 9 9 10 10 10 9 8 8 9 9 10 10 9 11 14 14 15 14 11 7 7 6 7 7 8 7 8 8 8 8
7 8 8 10 10 13 14 12 10 8 10 8 11 11 11 12 9 8 7 9 10 11 10 10 9 9 12 12 13 15 12 9 7 6 6 8 8 6 5 5 6 10
7 8 10 10 11 13 12 11 11 11 6 5 8 9 9 6 6 8 6 6 6 9 9 10 8 9 12 12 14 16 12 8 7 6 8 6 6 6 5 5 5 6
6 10 11 11 12 11 9 9 5 4 7 8 6 5 4 3 4 5 6 5 4 5 6 8 7 5 10 14 14 15 16 9 6 7 8 8 6 7 6 3 5 6
Wind_Direction
218 219 222 221 223 225 222 218 216 212 210 213 217 217 213 212 200 200 206 211 219 223 221 221 221 221 223 222 220 222 226 228 228 227 227 226 228 228 229 229 228 230
219 219 220 223 225 224 225 222 219 215 214 215 218 217 212 201 192 193 200 207 216 221 221 221 221 220 218 218 217 218 224 227 228 222 224 224 227 228 230 230 229 229
221 219 220 220 224 226 225 224 223 222 224 224 221 218 216 198 195 197 204 206 216 225 224 223 222 219 219 219 218 218 221 222 223 221 220 225 226 225 228 227 230 227
220 220 221 224 226 229 228 225 221 224 226 226 220 215 208 196 198 201 204 206 219 225 223 222 221 220 220 220 218 220 220 220 219 215 217 220 222 223 225 224 226 226
218 220 222 224 224 225 224 223 222 222 222 223 222 215 209 207 202 207 216 221 220 222 222 221 221 220 219 218 216 217 219 221 219 218 217 217 219 215 221 218 218 223
220 221 221 222 222 220 222 224 225 222 222 223 221 216 221 218 210 223 221 218 217 218 219 219 220 220 218 215 211 215 219 218 218 213 214 218 219 212 217 218 220 221
220 219 220 220 227 231 235 233 230 226 225 226 225 226 228 224 219 220 218 218 216 215 216 215 216 217 214 208 206 211 214 219 217 214 217 219 216 217 214 217 219 222
224 222 220 221 227 232 234 235 235 235 229 232 231 226 230 226 220 217 217 217 217 217 216 216 217 216 205 199 212 213 214 212 217 216 218 220 217 221 216 216 218 222
224 222 218 219 222 230 232 231 233 233 231 230 232 230 225 223 217 219 216 216 217 217 217 216 212 208 206 205 207 210 212 214 214 214 216 217 218 220 218 214 216 219
222 221 219 218 225 230 231 230 230 231 229 229 230 229 222 207 224 224 219 214 215 214 213 212 213 211 209 206 208 208 212 215 215 216 216 218 221 220 218 215 218 220
223 219 218 217 224 231 232 229 227 227 225 218 220 223 215 218 218 219 216 215 215 217 218 214 213 213 210 209 210 209 211 214 215 216 218 220 220 220 219 218 218 219
226 221 220 221 223 230 232 229 227 226 221 216 214 224 217 214 212 215 216 216 216 218 217 215 213 211 210 210 211 211 212 214 216 218 220 220 221 221 220 218 219 217
226 224 223 224 224 225 229 230 229 226 221 220 210 218 216 214 215 215 215 216 216 217 218 215 215 210 210 211 213 212 213 216 219 220 219 220 220 219 219 219 218 218
231 229 231 234 237 234 230 233 232 228 227 227 217 214 217 219 216 216 217 214 217 216 217 214 213 211 211 214 214 214 214 216 218 221 221 221 220 219 218 218 215 212
235 235 232 230 230 231 232 231 231 230 227 228 222 221 222 225 223 220 218 217 218 218 216 213 214 215 213 212 214 214 215 217 218 218 217 218 219 219 217 215 211 208
234 235 231 228 226 227 230 228 229 228 227 228 229 226 227 225 227 223 220 219 218 219 218 216 217 218 214 211 209 213 214 216 216 217 214 215 216 215 217 213 208 203
228 236 232 231 229 228 227 225 221 216 219 225 228 226 225 223 221 223 223 222 220 218 218 221 221 219 213 209 210 211 213 213 212 213 211 211 209 205 210 205 206 202
229 232 233 234 229 227 223 223 221 217 221 222 223 223 223 219 223 225 227 224 225 224 223 221 223 215 210 212 212 214 211 210 209 212 207 207 203 204 205 196 194 189
225 229 233 232 226 228 220 215 219 225 226 220 221 215 203 214 224 223 227 225 223 225 228 226 230 216 211 212 214 212 209 208 209 204 200 205 201 202 196 190 182 178
216 222 235 234 228 221 219 219 219 226 225 221 213 199 210 219 221 222 222 220 218 222 226 224 224 218 213 215 215 212 209 204 208 198 197 196 199 197 191 184 181 179
218 215 229 231 222 219 215 220 222 228 223 216 205 204 205 210 210 214 216 214 214 213 217 220 220 212 212 212 211 207 205 200 198 190 187 191 190 190 186 183 183 186
227 227 225 220 217 211 219 221 218 217 217 208 202 209 209 204 212 206 207 208 208 206 212 223 219 210 212 212 207 203 195 191 178 176 179 174 173 181 182 180 175 180
222 225 229 222 213 214 220 223 218 215 213 195 201 204 202 203 207 204 206 207 209 210 212 221 219 212 209 208 204 192 177 172 167 168 174 175 176 177 181 175 174 177
219 216 225 224 217 221 221 223 220 218 214 199 203 201 206 206 193 196 200 202 202 208 207 208 219 208 201 201 190 178 171 169 171 169 175 170 156 169 174 174 176 177
214 209 217 217 219 229 224 219 213 212 206 194 216 212 216 198 192 196 201 205 208 205 203 207 208 204 195 194 185 175 172 170 168 168 168 179 167 161 164 164 167 182
225 216 218 216 225 230 233 234 228 212 206 204 214 214 211 206 209 211 207 214 200 210 211 213 210 204 199 192 187 183 176 169 172 169 184 177 176 169 163 174 171 179